Year,Month,Day,Hour,Minute,Value (Times are PST for temperature in C)
2018,04,23,00,00,6.20
2018,04,23,00,01,6.30
2018,04,23,00,02,6.30
2018,04,23,00,03,6.30
2018,04,23,00,04,6.30
2018,04,23,00,05,6.30
2018,04,23,00,06,6.30
2018,04,23,00,07,6.30
2018,04,23,00,08,6.30
2018,04,23,00,09,6.20
2018,04,23,00,10,6.20
2018,04,23,00,11,6.20
2018,04,23,00,12,6.20
2018,04,23,00,13,6.20
2018,04,23,00,14,6.20
2018,04,23,00,15,6.10
2018,04,23,00,16,6.10
2018,04,23,00,17,6.10
2018,04,23,00,18,6.00
2018,04,23,00,19,6.00
2018,04,23,00,20,6.00
2018,04,23,00,21,5.90
2018,04,23,00,22,5.90
2018,04,23,00,23,5.90
2018,04,23,00,24,5.90
2018,04,23,00,25,5.90
2018,04,23,00,26,5.90
2018,04,23,00,27,5.80
2018,04,23,00,28,5.80
2018,04,23,00,29,5.80
2018,04,23,00,30,5.80
2018,04,23,00,31,5.80
2018,04,23,00,32,5.80
2018,04,23,00,33,5.80
2018,04,23,00,34,5.80
2018,04,23,00,35,5.80
2018,04,23,00,36,5.80
2018,04,23,00,37,5.80
2018,04,23,00,38,5.80
2018,04,23,00,39,5.70
2018,04,23,00,40,5.70
2018,04,23,00,41,5.70
2018,04,23,00,42,5.70
2018,04,23,00,43,5.70
2018,04,23,00,44,5.70
2018,04,23,00,45,5.70
2018,04,23,00,46,5.70
2018,04,23,00,47,5.70
2018,04,23,00,48,5.70
2018,04,23,00,49,5.70
2018,04,23,00,50,5.60
2018,04,23,00,51,5.60
2018,04,23,00,52,5.60
2018,04,23,00,53,5.60
2018,04,23,00,54,5.60
2018,04,23,00,55,5.60
2018,04,23,00,56,5.60
2018,04,23,00,57,5.60
2018,04,23,00,58,5.50
2018,04,23,00,59,5.50
2018,04,23,01,00,5.50
2018,04,23,01,01,5.50
2018,04,23,01,02,5.50
2018,04,23,01,03,5.40
2018,04,23,01,04,5.40
2018,04,23,01,05,5.40
2018,04,23,01,06,5.40
2018,04,23,01,07,5.40
2018,04,23,01,08,5.40
2018,04,23,01,09,5.30
2018,04,23,01,10,5.30
2018,04,23,01,11,5.30
2018,04,23,01,12,5.30
2018,04,23,01,13,5.30
2018,04,23,01,14,5.30
2018,04,23,01,15,5.30
2018,04,23,01,16,5.30
2018,04,23,01,17,5.30
2018,04,23,01,18,5.30
2018,04,23,01,19,5.30
2018,04,23,01,20,5.20
2018,04,23,01,21,5.20
2018,04,23,01,22,5.20
2018,04,23,01,23,5.20
2018,04,23,01,24,5.20
2018,04,23,01,25,5.20
2018,04,23,01,26,5.10
2018,04,23,01,27,5.10
2018,04,23,01,28,5.10
2018,04,23,01,29,5.10
2018,04,23,01,30,5.10
2018,04,23,01,31,5.00
2018,04,23,01,32,5.00
2018,04,23,01,33,5.00
2018,04,23,01,34,5.00
2018,04,23,01,35,4.90
2018,04,23,01,36,4.90
2018,04,23,01,37,4.90
2018,04,23,01,38,4.90
2018,04,23,01,39,4.90
2018,04,23,01,40,4.90
2018,04,23,01,41,4.90
2018,04,23,01,42,4.90
2018,04,23,01,43,4.90
2018,04,23,01,44,4.90
2018,04,23,01,45,4.90
2018,04,23,01,46,4.80
2018,04,23,01,47,4.80
2018,04,23,01,48,4.80
2018,04,23,01,49,4.80
2018,04,23,01,50,4.80
2018,04,23,01,51,4.80
2018,04,23,01,52,4.80
2018,04,23,01,53,4.80
2018,04,23,01,54,4.80
2018,04,23,01,55,4.80
2018,04,23,01,56,4.80
2018,04,23,01,57,4.70
2018,04,23,01,58,4.70
2018,04,23,01,59,4.70
2018,04,23,02,00,4.70
2018,04,23,02,01,4.70
2018,04,23,02,02,4.70
2018,04,23,02,03,4.70
2018,04,23,02,04,4.70
2018,04,23,02,05,4.70
2018,04,23,02,06,4.70
2018,04,23,02,07,4.70
2018,04,23,02,08,4.60
2018,04,23,02,09,4.60
2018,04,23,02,10,4.60
2018,04,23,02,11,4.60
2018,04,23,02,12,4.60
2018,04,23,02,13,4.60
2018,04,23,02,14,4.60
2018,04,23,02,15,4.60
2018,04,23,02,16,4.50
2018,04,23,02,17,4.50
2018,04,23,02,18,4.50
2018,04,23,02,19,4.50
2018,04,23,02,20,4.50
2018,04,23,02,21,4.50
2018,04,23,02,22,4.50
2018,04,23,02,23,4.50
2018,04,23,02,24,4.50
2018,04,23,02,25,4.50
2018,04,23,02,26,4.50
2018,04,23,02,27,4.50
2018,04,23,02,28,4.50
2018,04,23,02,29,4.40
2018,04,23,02,30,4.40
2018,04,23,02,31,4.40
2018,04,23,02,32,4.50
2018,04,23,02,33,4.50
2018,04,23,02,34,4.50
2018,04,23,02,35,4.50
2018,04,23,02,36,4.50
2018,04,23,02,37,4.50
2018,04,23,02,38,4.50
2018,04,23,02,39,4.50
2018,04,23,02,40,4.50
2018,04,23,02,41,4.50
2018,04,23,02,42,4.50
2018,04,23,02,43,4.40
2018,04,23,02,44,4.40
2018,04,23,02,45,4.40
2018,04,23,02,46,4.40
2018,04,23,02,47,4.40
2018,04,23,02,48,4.40
2018,04,23,02,49,4.40
2018,04,23,02,50,4.40
2018,04,23,02,51,4.40
2018,04,23,02,52,4.30
2018,04,23,02,53,4.30
2018,04,23,02,54,4.30
2018,04,23,02,55,4.30
2018,04,23,02,56,4.30
2018,04,23,02,57,4.30
2018,04,23,02,58,4.30
2018,04,23,02,59,4.20
2018,04,23,03,00,4.20
2018,04,23,03,01,4.20
2018,04,23,03,02,4.20
2018,04,23,03,03,4.20
2018,04,23,03,04,4.20
2018,04,23,03,05,4.20
2018,04,23,03,06,4.20
2018,04,23,03,07,4.20
2018,04,23,03,08,4.20
2018,04,23,03,09,4.20
2018,04,23,03,10,4.20
2018,04,23,03,11,4.20
2018,04,23,03,12,4.10
2018,04,23,03,13,4.10
2018,04,23,03,14,4.10
2018,04,23,03,15,4.10
2018,04,23,03,16,4.10
2018,04,23,03,17,4.10
2018,04,23,03,18,4.00
2018,04,23,03,19,4.00
2018,04,23,03,20,4.00
2018,04,23,03,21,3.90
2018,04,23,03,22,3.90
2018,04,23,03,23,3.90
2018,04,23,03,24,3.90
2018,04,23,03,25,3.90
2018,04,23,03,26,3.90
2018,04,23,03,27,3.90
2018,04,23,03,28,3.80
2018,04,23,03,29,3.80
2018,04,23,03,30,3.80
2018,04,23,03,31,3.80
2018,04,23,03,32,3.80
2018,04,23,03,33,3.80
2018,04,23,03,34,3.80
2018,04,23,03,35,3.70
2018,04,23,03,36,3.70
2018,04,23,03,37,3.70
2018,04,23,03,38,3.70
2018,04,23,03,39,3.70
2018,04,23,03,40,3.70
2018,04,23,03,41,3.70
2018,04,23,03,42,3.70
2018,04,23,03,43,3.70
2018,04,23,03,44,3.70
2018,04,23,03,45,3.60
2018,04,23,03,46,3.70
2018,04,23,03,47,3.70
2018,04,23,03,48,3.60
2018,04,23,03,49,3.60
2018,04,23,03,50,3.60
2018,04,23,03,51,3.60
2018,04,23,03,52,3.60
2018,04,23,03,53,3.60
2018,04,23,03,54,3.60
2018,04,23,03,55,3.60
2018,04,23,03,56,3.50
2018,04,23,03,57,3.50
2018,04,23,03,58,3.50
2018,04,23,03,59,3.50
2018,04,23,04,00,3.50
2018,04,23,04,01,3.50
2018,04,23,04,02,3.40
2018,04,23,04,03,3.40
2018,04,23,04,04,3.40
2018,04,23,04,05,3.40
2018,04,23,04,06,3.40
2018,04,23,04,07,3.40
2018,04,23,04,08,3.40
2018,04,23,04,09,3.40
2018,04,23,04,10,3.40
2018,04,23,04,11,3.30
2018,04,23,04,12,3.30
2018,04,23,04,13,3.30
2018,04,23,04,14,3.30
2018,04,23,04,15,3.30
2018,04,23,04,16,3.30
2018,04,23,04,17,3.30
2018,04,23,04,18,3.30
2018,04,23,04,19,3.30
2018,04,23,04,20,3.30
2018,04,23,04,21,3.30
2018,04,23,04,22,3.20
2018,04,23,04,23,3.20
2018,04,23,04,24,3.20
2018,04,23,04,25,3.20
2018,04,23,04,26,3.20
2018,04,23,04,27,3.20
2018,04,23,04,28,3.20
2018,04,23,04,29,3.20
2018,04,23,04,30,3.20
2018,04,23,04,31,3.20
2018,04,23,04,32,3.20
2018,04,23,04,33,3.20
2018,04,23,04,34,3.20
2018,04,23,04,35,3.20
2018,04,23,04,36,3.20
2018,04,23,04,37,3.20
2018,04,23,04,38,3.10
2018,04,23,04,39,3.10
2018,04,23,04,40,3.10
2018,04,23,04,41,3.10
2018,04,23,04,42,3.10
2018,04,23,04,43,3.10
2018,04,23,04,44,3.10
2018,04,23,04,45,3.10
2018,04,23,04,46,3.10
2018,04,23,04,47,3.10
2018,04,23,04,48,3.10
2018,04,23,04,49,3.10
2018,04,23,04,50,3.10
2018,04,23,04,51,3.00
2018,04,23,04,52,3.00
2018,04,23,04,53,3.00
2018,04,23,04,54,3.00
2018,04,23,04,55,3.00
2018,04,23,04,56,3.00
2018,04,23,04,57,3.00
2018,04,23,04,58,3.00
2018,04,23,04,59,3.00
2018,04,23,05,00,3.00
2018,04,23,05,01,3.00
2018,04,23,05,02,2.90
2018,04,23,05,03,2.90
2018,04,23,05,04,2.90
2018,04,23,05,05,2.90
2018,04,23,05,06,2.90
2018,04,23,05,07,2.90
2018,04,23,05,08,2.90
2018,04,23,05,09,2.90
2018,04,23,05,10,2.90
2018,04,23,05,11,2.90
2018,04,23,05,12,2.90
2018,04,23,05,13,2.80
2018,04,23,05,14,2.80
2018,04,23,05,15,2.80
2018,04,23,05,16,2.80
2018,04,23,05,17,2.80
2018,04,23,05,18,2.80
2018,04,23,05,19,2.80
2018,04,23,05,20,2.80
2018,04,23,05,21,2.80
2018,04,23,05,22,2.80
2018,04,23,05,23,2.80
2018,04,23,05,24,2.80
2018,04,23,05,25,2.80
2018,04,23,05,26,2.70
2018,04,23,05,27,2.70
2018,04,23,05,28,2.70
2018,04,23,05,29,2.70
2018,04,23,05,30,2.70
2018,04,23,05,31,2.70
2018,04,23,05,32,2.70
2018,04,23,05,33,2.70
2018,04,23,05,34,2.70
2018,04,23,05,35,2.70
2018,04,23,05,36,2.70
2018,04,23,05,37,2.70
2018,04,23,05,38,2.70
2018,04,23,05,39,2.80
2018,04,23,05,40,2.70
2018,04,23,05,41,2.70
2018,04,23,05,42,2.70
2018,04,23,05,43,2.70
2018,04,23,05,44,2.70
2018,04,23,05,45,2.70
2018,04,23,05,46,2.70
2018,04,23,05,47,2.70
2018,04,23,05,48,2.70
2018,04,23,05,49,2.70
2018,04,23,05,50,2.70
2018,04,23,05,51,2.70
2018,04,23,05,52,2.70
2018,04,23,05,53,2.70
2018,04,23,05,54,2.80
2018,04,23,05,55,2.80
2018,04,23,05,56,2.80
2018,04,23,05,57,2.80
2018,04,23,05,58,2.80
2018,04,23,05,59,2.80
2018,04,23,06,00,2.80
2018,04,23,06,01,2.80
2018,04,23,06,02,2.80
2018,04,23,06,03,2.80
2018,04,23,06,04,2.80
2018,04,23,06,05,2.80
2018,04,23,06,06,2.90
2018,04,23,06,07,2.90
2018,04,23,06,08,2.90
2018,04,23,06,09,2.90
2018,04,23,06,10,2.90
2018,04,23,06,11,2.90
2018,04,23,06,12,2.90
2018,04,23,06,13,2.90
2018,04,23,06,14,2.90
2018,04,23,06,15,2.90
2018,04,23,06,16,3.00
2018,04,23,06,17,3.00
2018,04,23,06,18,3.00
2018,04,23,06,19,3.10
2018,04,23,06,20,3.10
2018,04,23,06,21,3.10
2018,04,23,06,22,3.10
2018,04,23,06,23,3.10
2018,04,23,06,24,3.20
2018,04,23,06,25,3.20
2018,04,23,06,26,3.20
2018,04,23,06,27,3.20
2018,04,23,06,28,3.20
2018,04,23,06,29,3.20
2018,04,23,06,30,3.20
2018,04,23,06,31,3.20
2018,04,23,06,32,3.20
2018,04,23,06,33,3.20
2018,04,23,06,34,3.20
2018,04,23,06,35,3.20
2018,04,23,06,36,3.20
2018,04,23,06,37,3.20
2018,04,23,06,38,3.20
2018,04,23,06,39,3.20
2018,04,23,06,40,3.30
2018,04,23,06,41,3.30
2018,04,23,06,42,3.40
2018,04,23,06,43,3.40
2018,04,23,06,44,3.50
2018,04,23,06,45,3.60
2018,04,23,06,46,3.70
2018,04,23,06,47,3.80
2018,04,23,06,48,3.90
2018,04,23,06,49,4.10
2018,04,23,06,50,4.20
2018,04,23,06,51,4.30
2018,04,23,06,52,4.50
2018,04,23,06,53,4.60
2018,04,23,06,54,4.70
2018,04,23,06,55,4.80
2018,04,23,06,56,4.90
2018,04,23,06,57,5.10
2018,04,23,06,58,5.20
2018,04,23,06,59,5.40
2018,04,23,07,00,5.50
2018,04,23,07,01,5.60
2018,04,23,07,02,5.70
2018,04,23,07,03,5.80
2018,04,23,07,04,5.80
2018,04,23,07,05,5.90
2018,04,23,07,06,6.00
2018,04,23,07,07,6.00
2018,04,23,07,08,6.10
2018,04,23,07,09,6.10
2018,04,23,07,10,6.20
2018,04,23,07,11,6.30
2018,04,23,07,12,6.30
2018,04,23,07,13,6.40
2018,04,23,07,14,6.50
2018,04,23,07,15,6.60
2018,04,23,07,16,6.70
2018,04,23,07,17,6.80
2018,04,23,07,18,6.90
2018,04,23,07,19,6.90
2018,04,23,07,20,7.00
2018,04,23,07,21,7.00
2018,04,23,07,22,7.00
2018,04,23,07,23,7.10
2018,04,23,07,24,7.10
2018,04,23,07,25,7.10
2018,04,23,07,26,7.20
2018,04,23,07,27,7.20
2018,04,23,07,28,7.20
2018,04,23,07,29,7.30
2018,04,23,07,30,7.30
2018,04,23,07,31,7.30
2018,04,23,07,32,7.40
2018,04,23,07,33,7.40
2018,04,23,07,34,7.40
2018,04,23,07,35,7.40
2018,04,23,07,36,7.40
2018,04,23,07,37,7.50
2018,04,23,07,38,7.50
2018,04,23,07,39,7.60
2018,04,23,07,40,7.70
2018,04,23,07,41,7.70
2018,04,23,07,42,7.80
2018,04,23,07,43,7.80
2018,04,23,07,44,7.80
2018,04,23,07,45,7.90
2018,04,23,07,46,7.90
2018,04,23,07,47,8.00
2018,04,23,07,48,8.00
2018,04,23,07,49,8.10
2018,04,23,07,50,8.10
2018,04,23,07,51,8.20
2018,04,23,07,52,8.20
2018,04,23,07,53,8.40
2018,04,23,07,54,8.40
2018,04,23,07,55,8.50
2018,04,23,07,56,8.50
2018,04,23,07,57,8.60
2018,04,23,07,58,8.70
2018,04,23,07,59,8.70
2018,04,23,08,00,8.80
2018,04,23,08,01,8.90
2018,04,23,08,02,8.90
2018,04,23,08,03,9.00
2018,04,23,08,04,9.10
2018,04,23,08,05,9.20
2018,04,23,08,06,9.20
2018,04,23,08,07,9.20
2018,04,23,08,08,9.30
2018,04,23,08,09,9.30
2018,04,23,08,10,9.30
2018,04,23,08,11,9.40
2018,04,23,08,12,9.40
2018,04,23,08,13,9.40
2018,04,23,08,14,9.40
2018,04,23,08,15,9.40
2018,04,23,08,16,9.40
2018,04,23,08,17,9.40
2018,04,23,08,18,9.40
2018,04,23,08,19,9.50
2018,04,23,08,20,9.50
2018,04,23,08,21,9.50
2018,04,23,08,22,9.50
2018,04,23,08,23,9.50
2018,04,23,08,24,9.60
2018,04,23,08,25,9.60
2018,04,23,08,26,9.60
2018,04,23,08,27,9.60
2018,04,23,08,28,9.60
2018,04,23,08,29,9.60
2018,04,23,08,30,9.70
2018,04,23,08,31,9.70
2018,04,23,08,32,9.70
2018,04,23,08,33,9.70
2018,04,23,08,34,9.70
2018,04,23,08,35,9.70
2018,04,23,08,36,9.80
2018,04,23,08,37,9.80
2018,04,23,08,38,9.80
2018,04,23,08,39,9.80
2018,04,23,08,40,9.90
2018,04,23,08,41,9.90
2018,04,23,08,42,9.90
2018,04,23,08,43,10.00
2018,04,23,08,44,10.00
2018,04,23,08,45,10.00
2018,04,23,08,46,10.00
2018,04,23,08,47,10.00
2018,04,23,08,48,10.10
2018,04,23,08,49,10.10
2018,04,23,08,50,10.10
2018,04,23,08,51,10.10
2018,04,23,08,52,10.20
2018,04,23,08,53,10.20
2018,04,23,08,54,10.20
2018,04,23,08,55,10.20
2018,04,23,08,56,10.20
2018,04,23,08,57,10.20
2018,04,23,08,58,10.20
2018,04,23,08,59,10.20
2018,04,23,09,00,10.20
2018,04,23,09,01,10.30
2018,04,23,09,02,10.30
2018,04,23,09,03,10.30
2018,04,23,09,04,10.40
2018,04,23,09,05,10.40
2018,04,23,09,06,10.40
2018,04,23,09,07,10.40
2018,04,23,09,08,10.40
2018,04,23,09,09,10.50
2018,04,23,09,10,10.50
2018,04,23,09,11,10.60
2018,04,23,09,12,10.60
2018,04,23,09,13,10.70
2018,04,23,09,14,10.70
2018,04,23,09,15,10.70
2018,04,23,09,16,10.70
2018,04,23,09,17,10.70
2018,04,23,09,18,10.80
2018,04,23,09,19,10.80
2018,04,23,09,20,10.80
2018,04,23,09,21,10.90
2018,04,23,09,22,10.90
2018,04,23,09,23,11.00
2018,04,23,09,24,11.00
2018,04,23,09,25,11.10
2018,04,23,09,26,11.10
2018,04,23,09,27,11.20
2018,04,23,09,28,11.20
2018,04,23,09,29,11.30
2018,04,23,09,30,11.30
2018,04,23,09,31,11.30
2018,04,23,09,32,11.30
2018,04,23,09,33,11.40
2018,04,23,09,34,11.40
2018,04,23,09,35,11.50
2018,04,23,09,36,11.60
2018,04,23,09,37,11.60
2018,04,23,09,38,11.60
2018,04,23,09,39,11.60
2018,04,23,09,40,11.60
2018,04,23,09,41,11.70
2018,04,23,09,42,11.70
2018,04,23,09,43,11.70
2018,04,23,09,44,11.80
2018,04,23,09,45,11.80
2018,04,23,09,46,11.90
2018,04,23,09,47,11.90
2018,04,23,09,48,11.90
2018,04,23,09,49,11.90
2018,04,23,09,50,12.00
2018,04,23,09,51,12.00
2018,04,23,09,52,12.10
2018,04,23,09,53,12.20
2018,04,23,09,54,12.20
2018,04,23,09,55,12.30
2018,04,23,09,56,12.30
2018,04,23,09,57,12.40
2018,04,23,09,58,12.40
2018,04,23,09,59,12.40
2018,04,23,10,00,12.50
2018,04,23,10,01,12.40
2018,04,23,10,02,12.50
2018,04,23,10,03,12.50
2018,04,23,10,04,12.40
2018,04,23,10,05,12.40
2018,04,23,10,06,12.40
2018,04,23,10,07,12.40
2018,04,23,10,08,12.50
2018,04,23,10,09,12.50
2018,04,23,10,10,12.60
2018,04,23,10,11,12.60
2018,04,23,10,12,12.60
2018,04,23,10,13,12.70
2018,04,23,10,14,12.70
2018,04,23,10,15,12.80
2018,04,23,10,16,12.80
2018,04,23,10,17,12.90
2018,04,23,10,18,12.90
2018,04,23,10,19,12.90
2018,04,23,10,20,12.90
2018,04,23,10,21,13.00
2018,04,23,10,22,13.00
2018,04,23,10,23,13.00
2018,04,23,10,24,12.90
2018,04,23,10,25,12.90
2018,04,23,10,26,12.90
2018,04,23,10,27,12.90
2018,04,23,10,28,13.00
2018,04,23,10,29,13.10
2018,04,23,10,30,13.10
2018,04,23,10,31,13.10
2018,04,23,10,32,13.10
2018,04,23,10,33,13.10
2018,04,23,10,34,13.10
2018,04,23,10,35,13.20
2018,04,23,10,36,13.20
2018,04,23,10,37,13.30
2018,04,23,10,38,13.30
2018,04,23,10,39,13.30
2018,04,23,10,40,13.30
2018,04,23,10,41,13.30
2018,04,23,10,42,13.30
2018,04,23,10,43,13.30
2018,04,23,10,44,13.30
2018,04,23,10,45,13.30
2018,04,23,10,46,13.30
2018,04,23,10,47,13.20
2018,04,23,10,48,13.20
2018,04,23,10,49,13.20
2018,04,23,10,50,13.20
2018,04,23,10,51,13.20
2018,04,23,10,52,13.30
2018,04,23,10,53,13.30
2018,04,23,10,54,13.40
2018,04,23,10,55,13.40
2018,04,23,10,56,13.50
2018,04,23,10,57,13.50
2018,04,23,10,58,13.50
2018,04,23,10,59,13.60
2018,04,23,11,00,13.60
2018,04,23,11,01,13.60
2018,04,23,11,02,13.70
2018,04,23,11,03,13.70
2018,04,23,11,04,13.80
2018,04,23,11,05,13.80
2018,04,23,11,06,13.90
2018,04,23,11,07,13.90
2018,04,23,11,08,13.90
2018,04,23,11,09,13.80
2018,04,23,11,10,13.80
2018,04,23,11,11,13.80
2018,04,23,11,12,13.80
2018,04,23,11,13,13.80
2018,04,23,11,14,13.90
2018,04,23,11,15,13.90
2018,04,23,11,16,14.00
2018,04,23,11,17,14.10
2018,04,23,11,18,14.10
2018,04,23,11,19,14.10
2018,04,23,11,20,14.10
2018,04,23,11,21,14.10
2018,04,23,11,22,14.20
2018,04,23,11,23,14.30
2018,04,23,11,24,14.30
2018,04,23,11,25,14.30
2018,04,23,11,26,14.40
2018,04,23,11,27,14.40
2018,04,23,11,28,14.50
2018,04,23,11,29,14.50
2018,04,23,11,30,14.60
2018,04,23,11,31,14.60
2018,04,23,11,32,14.70
2018,04,23,11,33,14.70
2018,04,23,11,34,14.70
2018,04,23,11,35,14.70
2018,04,23,11,36,14.70
2018,04,23,11,37,14.80
2018,04,23,11,38,14.80
2018,04,23,11,39,14.80
2018,04,23,11,40,14.80
2018,04,23,11,41,14.80
2018,04,23,11,42,14.70
2018,04,23,11,43,14.60
2018,04,23,11,44,14.60
2018,04,23,11,45,14.60
2018,04,23,11,46,14.70
2018,04,23,11,47,14.70
2018,04,23,11,48,14.60
2018,04,23,11,49,14.60
2018,04,23,11,50,14.60
2018,04,23,11,51,14.60
2018,04,23,11,52,14.60
2018,04,23,11,53,14.50
2018,04,23,11,54,14.50
2018,04,23,11,55,14.50
2018,04,23,11,56,14.50
2018,04,23,11,57,14.40
2018,04,23,11,58,14.40
2018,04,23,11,59,14.50
2018,04,23,12,00,14.50
2018,04,23,12,01,14.60
2018,04,23,12,02,14.70
2018,04,23,12,03,14.80
2018,04,23,12,04,14.80
2018,04,23,12,05,14.90
2018,04,23,12,06,15.00
2018,04,23,12,07,15.00
2018,04,23,12,08,15.10
2018,04,23,12,09,15.10
2018,04,23,12,10,15.10
2018,04,23,12,11,15.20
2018,04,23,12,12,15.30
2018,04,23,12,13,15.30
2018,04,23,12,14,15.30
2018,04,23,12,15,15.30
2018,04,23,12,16,15.30
2018,04,23,12,17,15.20
2018,04,23,12,18,15.20
2018,04,23,12,19,15.20
2018,04,23,12,20,15.20
2018,04,23,12,21,15.20
2018,04,23,12,22,15.20
2018,04,23,12,23,15.20
2018,04,23,12,24,15.30
2018,04,23,12,25,15.40
2018,04,23,12,26,15.40
2018,04,23,12,27,15.40
2018,04,23,12,28,15.40
2018,04,23,12,29,15.50
2018,04,23,12,30,15.60
2018,04,23,12,31,15.70
2018,04,23,12,32,15.70
2018,04,23,12,33,15.70
2018,04,23,12,34,15.70
2018,04,23,12,35,15.70
2018,04,23,12,36,15.60
2018,04,23,12,37,15.70
2018,04,23,12,38,15.80
2018,04,23,12,39,15.80
2018,04,23,12,40,15.80
2018,04,23,12,41,15.80
2018,04,23,12,42,15.80
2018,04,23,12,43,15.80
2018,04,23,12,44,15.80
2018,04,23,12,45,15.80
2018,04,23,12,46,15.90
2018,04,23,12,47,15.90
2018,04,23,12,48,15.80
2018,04,23,12,49,15.80
2018,04,23,12,50,15.70
2018,04,23,12,51,15.70
2018,04,23,12,52,15.80
2018,04,23,12,53,15.90
2018,04,23,12,54,16.00
2018,04,23,12,55,16.10
2018,04,23,12,56,16.10
2018,04,23,12,57,16.10
2018,04,23,12,58,16.10
2018,04,23,12,59,16.10
2018,04,23,13,00,16.10
2018,04,23,13,01,16.10
2018,04,23,13,02,16.20
2018,04,23,13,03,16.20
2018,04,23,13,04,16.30
2018,04,23,13,05,16.30
2018,04,23,13,06,16.30
2018,04,23,13,07,16.30
2018,04,23,13,08,16.40
2018,04,23,13,09,16.40
2018,04,23,13,10,16.30
2018,04,23,13,11,16.10
2018,04,23,13,12,16.00
2018,04,23,13,13,15.90
2018,04,23,13,14,15.90
2018,04,23,13,15,15.90
2018,04,23,13,16,15.90
2018,04,23,13,17,16.00
2018,04,23,13,18,16.10
2018,04,23,13,19,16.10
2018,04,23,13,20,16.10
2018,04,23,13,21,16.10
2018,04,23,13,22,16.20
2018,04,23,13,23,16.20
2018,04,23,13,24,16.10
2018,04,23,13,25,16.10
2018,04,23,13,26,16.10
2018,04,23,13,27,16.10
2018,04,23,13,28,16.20
2018,04,23,13,29,16.20
2018,04,23,13,30,16.30
2018,04,23,13,31,16.40
2018,04,23,13,32,16.40
2018,04,23,13,33,16.40
2018,04,23,13,34,16.40
2018,04,23,13,35,16.40
2018,04,23,13,36,16.50
2018,04,23,13,37,16.50
2018,04,23,13,38,16.60
2018,04,23,13,39,16.60
2018,04,23,13,40,16.70
2018,04,23,13,41,16.70
2018,04,23,13,42,16.80
2018,04,23,13,43,16.80
2018,04,23,13,44,16.90
2018,04,23,13,45,16.90
2018,04,23,13,46,17.00
2018,04,23,13,47,17.00
2018,04,23,13,48,17.00
2018,04,23,13,49,17.00
2018,04,23,13,50,17.00
2018,04,23,13,51,17.00
2018,04,23,13,52,17.00
2018,04,23,13,53,17.10
2018,04,23,13,54,17.10
2018,04,23,13,55,17.10
2018,04,23,13,56,17.10
2018,04,23,13,57,17.20
2018,04,23,13,58,17.30
2018,04,23,13,59,17.30
2018,04,23,14,00,17.30
2018,04,23,14,01,17.30
2018,04,23,14,02,17.30
2018,04,23,14,03,17.20
2018,04,23,14,04,17.10
2018,04,23,14,05,17.00
2018,04,23,14,06,16.90
2018,04,23,14,07,16.90
2018,04,23,14,08,16.90
2018,04,23,14,09,16.90
2018,04,23,14,10,16.90
2018,04,23,14,11,17.00
2018,04,23,14,12,17.00
2018,04,23,14,13,17.00
2018,04,23,14,14,17.10
2018,04,23,14,15,17.10
2018,04,23,14,16,17.10
2018,04,23,14,17,17.00
2018,04,23,14,18,17.00
2018,04,23,14,19,17.10
2018,04,23,14,20,17.10
2018,04,23,14,21,17.20
2018,04,23,14,22,17.20
2018,04,23,14,23,17.20
2018,04,23,14,24,17.20
2018,04,23,14,25,17.10
2018,04,23,14,26,17.00
2018,04,23,14,27,17.00
2018,04,23,14,28,16.90
2018,04,23,14,29,17.00
2018,04,23,14,30,17.00
2018,04,23,14,31,17.00
2018,04,23,14,32,16.90
2018,04,23,14,33,17.00
2018,04,23,14,34,17.00
2018,04,23,14,35,17.10
2018,04,23,14,36,17.10
2018,04,23,14,37,17.10
2018,04,23,14,38,17.20
2018,04,23,14,39,17.20
2018,04,23,14,40,17.20
2018,04,23,14,41,17.20
2018,04,23,14,42,17.20
2018,04,23,14,43,17.20
2018,04,23,14,44,17.20
2018,04,23,14,45,17.30
2018,04,23,14,46,17.30
2018,04,23,14,47,17.30
2018,04,23,14,48,17.20
2018,04,23,14,49,17.20
2018,04,23,14,50,17.20
2018,04,23,14,51,17.20
2018,04,23,14,52,17.10
2018,04,23,14,53,17.10
2018,04,23,14,54,17.10
2018,04,23,14,55,17.10
2018,04,23,14,56,17.10
2018,04,23,14,57,17.10
2018,04,23,14,58,17.20
2018,04,23,14,59,17.20
2018,04,23,15,00,17.30
2018,04,23,15,01,17.30
2018,04,23,15,02,17.30
2018,04,23,15,03,17.30
2018,04,23,15,04,17.30
2018,04,23,15,05,17.30
2018,04,23,15,06,17.30
2018,04,23,15,07,17.30
2018,04,23,15,08,17.30
2018,04,23,15,09,17.40
2018,04,23,15,10,17.50
2018,04,23,15,11,17.60
2018,04,23,15,12,17.70
2018,04,23,15,13,17.80
2018,04,23,15,14,17.80
2018,04,23,15,15,17.80
2018,04,23,15,16,17.80
2018,04,23,15,17,17.80
2018,04,23,15,18,17.80
2018,04,23,15,19,17.80
2018,04,23,15,20,17.80
2018,04,23,15,21,17.80
2018,04,23,15,22,17.70
2018,04,23,15,23,17.70
2018,04,23,15,24,17.70
2018,04,23,15,25,17.70
2018,04,23,15,26,17.70
2018,04,23,15,27,17.70
2018,04,23,15,28,17.80
2018,04,23,15,29,17.80
2018,04,23,15,30,17.80
2018,04,23,15,31,17.70
2018,04,23,15,32,17.70
2018,04,23,15,33,17.80
2018,04,23,15,34,17.80
2018,04,23,15,35,17.80
2018,04,23,15,36,17.80
2018,04,23,15,37,17.90
2018,04,23,15,38,17.90
2018,04,23,15,39,17.90
2018,04,23,15,40,18.00
2018,04,23,15,41,18.10
2018,04,23,15,42,18.20
2018,04,23,15,43,18.30
2018,04,23,15,44,18.30
2018,04,23,15,45,18.40
2018,04,23,15,46,18.50
2018,04,23,15,47,18.50
2018,04,23,15,48,18.50
2018,04,23,15,49,18.50
2018,04,23,15,50,18.50
2018,04,23,15,51,18.50
2018,04,23,15,52,18.60
2018,04,23,15,53,18.60
2018,04,23,15,54,18.60
2018,04,23,15,55,18.70
2018,04,23,15,56,18.70
2018,04,23,15,57,18.70
2018,04,23,15,58,18.70
2018,04,23,15,59,18.80
2018,04,23,16,00,18.80
2018,04,23,16,01,18.80
2018,04,23,16,02,18.80
2018,04,23,16,03,18.90
2018,04,23,16,04,19.00
2018,04,23,16,05,19.00
2018,04,23,16,06,19.10
2018,04,23,16,07,19.10
2018,04,23,16,08,19.10
2018,04,23,16,09,19.00
2018,04,23,16,10,18.80
2018,04,23,16,11,18.80
2018,04,23,16,12,18.70
2018,04,23,16,13,18.70
2018,04,23,16,14,18.70
2018,04,23,16,15,18.80
2018,04,23,16,16,18.90
2018,04,23,16,17,18.90
2018,04,23,16,18,19.00
2018,04,23,16,19,19.10
2018,04,23,16,20,19.10
2018,04,23,16,21,19.20
2018,04,23,16,22,19.20
2018,04,23,16,23,19.10
2018,04,23,16,24,19.00
2018,04,23,16,25,18.90
2018,04,23,16,26,18.80
2018,04,23,16,27,18.80
2018,04,23,16,28,18.80
2018,04,23,16,29,18.80
2018,04,23,16,30,18.80
2018,04,23,16,31,18.80
2018,04,23,16,32,18.70
2018,04,23,16,33,18.70
2018,04,23,16,34,18.70
2018,04,23,16,35,18.70
2018,04,23,16,36,18.70
2018,04,23,16,37,18.70
2018,04,23,16,38,18.70
2018,04,23,16,39,18.70
2018,04,23,16,40,18.60
2018,04,23,16,41,18.60
2018,04,23,16,42,18.70
2018,04,23,16,43,18.80
2018,04,23,16,44,18.80
2018,04,23,16,45,18.70
2018,04,23,16,46,18.70
2018,04,23,16,47,18.70
2018,04,23,16,48,18.70
2018,04,23,16,49,18.70
2018,04,23,16,50,18.60
2018,04,23,16,51,18.60
2018,04,23,16,52,18.60
2018,04,23,16,53,18.60
2018,04,23,16,54,18.70
2018,04,23,16,55,18.70
2018,04,23,16,56,18.70
2018,04,23,16,57,18.70
2018,04,23,16,58,18.70
2018,04,23,16,59,18.70
2018,04,23,17,00,18.70
2018,04,23,17,01,18.80
2018,04,23,17,02,18.80
2018,04,23,17,03,18.80
2018,04,23,17,04,18.90
2018,04,23,17,05,18.80
2018,04,23,17,06,18.80
2018,04,23,17,07,18.70
2018,04,23,17,08,18.60
2018,04,23,17,09,18.50
2018,04,23,17,10,18.40
2018,04,23,17,11,18.40
2018,04,23,17,12,18.40
2018,04,23,17,13,18.30
2018,04,23,17,14,18.30
2018,04,23,17,15,18.30
2018,04,23,17,16,18.30
2018,04,23,17,17,18.30
2018,04,23,17,18,18.30
2018,04,23,17,19,18.30
2018,04,23,17,20,18.30
2018,04,23,17,21,18.20
2018,04,23,17,22,18.20
2018,04,23,17,23,18.20
2018,04,23,17,24,18.20
2018,04,23,17,25,18.20
2018,04,23,17,26,18.20
2018,04,23,17,27,18.20
2018,04,23,17,28,18.20
2018,04,23,17,29,18.30
2018,04,23,17,30,18.30
2018,04,23,17,31,18.30
2018,04,23,17,32,18.30
2018,04,23,17,33,18.30
2018,04,23,17,34,18.30
2018,04,23,17,35,18.30
2018,04,23,17,36,18.30
2018,04,23,17,37,18.30
2018,04,23,17,38,18.30
2018,04,23,17,39,18.30
2018,04,23,17,40,18.30
2018,04,23,17,41,18.20
2018,04,23,17,42,18.20